Location: Calvera
(42.3882°N, 0.6137°E)
Time: 14:37:16
(UTC+00:00)

Geosat - Pass Details

Date: 28 October 2020
Orbit: 763 x 766 km, 108.0° (Epoch: 25 November)

Event Time Altitude Azimuth Distance (km) Brightness Sun altitude
Rises 04:38:44 0° 155° (SSE) 3,212 7.6 -20.4°
Reaches altitude 10° 04:41:00 10° 156° (SSE) 2,291 6.7 -20.0°
Maximum altitude 04:46:00 80° 243° (WSW) 780 3.9 -19.1°
Drops below altitude 10° 04:51:03 10° 331° (NNW) 2,308 6.2 -18.1°
Enters shadow 04:51:08 10° 332° (NNW) 2,342 6.2 -18.1°
